CZ-2C DEB (43520 NORAD) Tracking and Keplerian Element Data

This shows tracking and keplerian element data for the satellite.

Feedback or suggestion? Click here.




ElementValue
Catalog43520
NameCZ-2C DEB
Epoch Orbit309
Epoch Day198.30477194
Epoch Year2018
RAAN174.8486
Inclination35.0013
Eccentricity0.0008265
Argument of Perigee125.8949
Mean Anonmoly234.2528
Mean Motion15.28875395
Decay Rate3.651E-05
L11 43520U 18054C 18198.30477194 .00003651 00000-0 12809-3 0 9992
L22 43520 35.0013 174.8486 0008265 125.8949 234.2528 15.28875395 3096

Live tracking and technical data element details for CZ-2C DEB (NORAD 43520). CZ-2C DEB can be tracked NOW for your location showing map with azimuth and elevation plus other details from your city location.

Track the satellite on the map from your city or location and see movement details for azimuth, elevation, latitude, longitude, range, height, and movement on the map or in text.







IsCatalogInMostPopularTable: catalog: 43520, numindb: 4
Update: records affected: 1



GetName: 43520 CZ-2C DEB

Hit Count: updated at: Thu, 19 Jul 2018 03:43:30 GMT